| time (UTC) | temp C | wind direction | speed KPH | gust KPH | rain 1hr cm | rain 24hr cm | rain mn cm | humidity % | barometer mb |
| 20260503173117 | 15 | 265 | 8.0 | 17.7 | 0.00 | 0.00 | 0.00 | 48 | 1018.9 |
| 20260503171546 | 15 | 192 | 6.4 | 19.3 | 0.00 | 0.00 | 0.00 | 50 | 1019.4 |
| 20260503081551 | 0 | 0 | 0.0 | 0.0 | 0.00 | 0.00 | 0.00 | 88 | 1018.6 |
| 20260503071543 | 0 | 0 | 0.0 | 0.0 | 0.00 | 0.00 | 0.00 | 87 | 1018.4 |
| 20260503054541 | 2 | 0 | 0.0 | 0.0 | 0.00 | 0.00 | 0.00 | 79 | 1018.6 |
| 20260503053045 | 3 | 0 | 0.0 | 0.0 | 0.00 | 0.00 | 0.00 | 77 | 1018.5 |
| 20260503051535 | 4 | 0 | 0.0 | 0.0 | 0.00 | 0.00 | 0.00 | 74 | 1018.5 |
| 20260503050045 | 5 | 0 | 0.0 | 0.0 | 0.00 | 0.00 | 0.00 | 71 | 1018.6 |
| 20260503044543 | 5 | 0 | 0.0 | 0.0 | 0.00 | 0.00 | 0.00 | 69 | 1018.5 |
| 20260503043042 | 5 | 0 | 0.0 | 1.6 | 0.00 | 0.00 | 0.00 | 68 | 1018.6 |
| 20260503041543 | 5 | 0 | 0.0 | 4.8 | 0.00 | 0.00 | 0.00 | 69 | 1018.5 |
| 20260503040038 | 5 | 360 | 0.0 | 3.2 | 0.00 | 0.00 | 0.00 | 70 | 1018.4 |
| 20260503034544 | 5 | 346 | 1.6 | 4.8 | 0.00 | 0.00 | 0.00 | 71 | 1018.3 |
| 20260503033042 | 6 | 0 | 0.0 | 0.0 | 0.00 | 0.00 | 0.00 | 69 | 1018.2 |
| 20260503031550 | 6 | 0 | 0.0 | 0.0 | 0.00 | 0.00 | 0.00 | 69 | 1018.1 |
| 20260503030041 | 6 | 346 | 0.0 | 3.2 | 0.00 | 0.00 | 0.00 | 67 | 1018.0 |
| 20260503024538 | 6 | 346 | 0.0 | 4.8 | 0.00 | 0.00 | 0.00 | 67 | 1017.9 |
| 20260503023039 | 7 | 0 | 0.0 | 1.6 | 0.00 | 0.00 | 0.00 | 68 | 1017.7 |
| 20260503021547 | 7 | 0 | 0.0 | 0.0 | 0.00 | 0.00 | 0.00 | 65 | 1017.5 |
| 20260503020042 | 8 | 0 | 0.0 | 3.2 | 0.00 | 0.00 | 0.00 | 66 | 1017.4 |
| 20260503014544 | 8 | 0 | 0.0 | 1.6 | 0.00 | 0.00 | 0.00 | 64 | 1017.1 |
| 20260503013043 | 8 | 346 | 0.0 | 4.8 | 0.00 | 0.00 | 0.00 | 64 | 1017.0 |
| 20260503011544 | 8 | 346 | 1.6 | 4.8 | 0.00 | 0.00 | 0.00 | 63 | 1016.9 |
| 20260503010039 | 9 | 0 | 0.0 | 0.0 | 0.00 | 0.00 | 0.00 | 62 | 1016.6 |
| 20260503004600 | 10 | 0 | 0.0 | 4.8 | 0.00 | 0.00 | 0.00 | 60 | 1016.6 |
| 20260503003039 | 10 | 0 | 0.0 | 1.6 | 0.00 | 0.00 | 0.00 | 60 | 1016.5 |
| 20260503001542 | 10 | 0 | 0.0 | 0.0 | 0.00 | 0.00 | 0.00 | 60 | 1016.3 |
| 20260503000058 | 11 | 346 | 0.0 | 4.8 | 0.00 | 0.00 | 0.00 | 57 | 1016.1 |
| 20260502234539 | 11 | 346 | 3.2 | 6.4 | 0.00 | 0.00 | 0.00 | 57 | 1016.0 |
| 20260502233038 | 11 | 338 | 1.6 | 9.7 | 0.00 | 0.00 | 0.00 | 58 | 1016.0 |
| 20260502231540 | 11 | 314 | 6.4 | 14.5 | 0.00 | 0.00 | 0.00 | 53 | 1016.0 |
| 20260502230044 | 11 | 264 | 6.4 | 17.7 | 0.00 | 0.00 | 0.00 | 52 | 1016.1 |
| 20260502224549 | 11 | 317 | 6.4 | 19.3 | 0.00 | 0.00 | 0.00 | 53 | 1016.0 |
| 20260502223041 | 11 | 324 | 6.4 | 17.7 | 0.00 | 0.00 | 0.00 | 53 | 1016.0 |
| 20260502221538 | 11 | 319 | 8.0 | 20.9 | 0.00 | 0.00 | 0.00 | 52 | 1016.0 |
| 20260502220047 | 11 | 347 | 4.8 | 17.7 | 0.00 | 0.00 | 0.00 | 54 | 1015.8 |
| 20260502214535 | 12 | 321 | 8.0 | 22.5 | 0.00 | 0.00 | 0.00 | 53 | 1015.8 |
| 20260502213042 | 12 | 360 | 11.3 | 20.9 | 0.00 | 0.00 | 0.00 | 55 | 1015.7 |
| 20260502211542 | 12 | 5 | 12.9 | 25.7 | 0.00 | 0.00 | 0.00 | 56 | 1015.7 |
| 20260502210042 | 11 | 314 | 9.7 | 19.3 | 0.00 | 0.00 | 0.00 | 56 | 1015.6 |
| 20260502204541 | 11 | 13 | 9.7 | 20.9 | 0.00 | 0.00 | 0.00 | 58 | 1015.8 |
| 20260502203043 | 11 | 345 | 8.0 | 22.5 | 0.00 | 0.00 | 0.00 | 59 | 1015.9 |
| 20260502201537 | 12 | 278 | 8.0 | 16.1 | 0.00 | 0.00 | 0.00 | 55 | 1015.8 |
| 20260502200040 | 12 | 260 | 11.3 | 22.5 | 0.00 | 0.00 | 0.00 | 53 | 1015.9 |
| 20260502194546 | 12 | 342 | 4.8 | 12.9 | 0.00 | 0.00 | 0.00 | 53 | 1016.0 |
| 20260502193056 | 12 | 323 | 4.8 | 14.5 | 0.00 | 0.00 | 0.00 | 53 | 1016.0 |
| 20260502191549 | 12 | 294 | 6.4 | 14.5 | 0.00 | 0.00 | 0.00 | 57 | 1016.2 |
| 20260502190039 | 12 | 280 | 6.4 | 17.7 | 0.00 | 0.00 | 0.00 | 55 | 1016.3 |
| 20260502184536 | 12 | 9 | 4.8 | 14.5 | 0.00 | 0.00 | 0.00 | 55 | 1016.4 |
| 20260502183042 | 12 | 12 | 6.4 | 14.5 | 0.00 | 0.00 | 0.00 | 58 | 1016.3 |
| 20260502181548 | 11 | 22 | 0.0 | 11.3 | 0.00 | 0.00 | 0.00 | 55 | 1016.5 |